Date,TemperatureHighF,TemperatureAvgF,TemperatureLowF,DewpointHighF,DewpointAvgF,DewpointLowF,HumidityHigh,HumidityAvg,HumidityLow,PressureMaxIn,PressureMinIn,WindSpeedMaxMPH,WindSpeedAvgMPH,GustSpeedMaxMPH,PrecipitationSumIn
2014-1-1,50,38,29,28,24,21,82,61,33,30.35,30.08,5,0,10,0.00
2014-1-2,46,40,34,42,34,27,93,81,69,30.11,29.56,16,1,17,0.40
2014-1-3,38,26,20,27,7,2,66,45,27,30.44,29.65,13,3,27,0.00
2014-1-4,36,27,16,27,13,9,80,57,35,30.46,30.23,2,0,6,0.00
2014-1-5,41,37,32,40,35,27,95,93,80,30.22,29.71,3,0,5,0.23
2014-1-6,44,35,11,42,22,-11,95,64,31,30.16,29.58,16,4,24,0.23
2014-1-7,23,14,6,4,-6,-11,62,41,25,30.46,30.17,11,2,17,0.00
2014-1-8,42,26,12,13,8,3,78,50,25,30.54,30.42,5,0,6,0.00
2014-1-9,51,36,24,27,15,4,70,47,15,30.51,30.39,3,0,6,0.00
2014-1-10,42,38,35,38,34,25,94,85,50,30.39,30.04,3,0,7,0.90
2014-1-11,62,50,39,61,48,38,95,93,71,30.03,29.48,8,1,12,1.10
2014-1-12,56,46,36,43,32,28,79,59,34,30.10,29.61,8,2,16,0.00
2014-1-13,59,45,32,42,34,29,90,67,41,30.09,29.87,7,0,11,0.02
2014-1-14,54,46,36,47,42,33,94,86,63,29.90,29.72,6,0,10,0.28
2014-1-15,48,36,31,43,34,29,95,92,75,29.89,29.80,2,0,6,0.01
2014-1-16,42,35,28,21,19,16,71,52,34,29.98,29.84,7,2,13,0.00
2014-1-17,51,38,25,28,23,18,74,56,37,29.95,29.77,9,1,12,0.00
2014-1-18,38,31,24,26,12,1,66,47,31,30.01,29.80,15,3,19,0.00
2014-1-19,51,37,26,26,20,15,68,53,36,29.93,29.84,8,2,19,0.00
2014-1-20,62,44,31,27,24,20,73,50,23,29.85,29.70,7,1,17,0.00
2014-1-21,48,36,26,35,27,19,90,73,50,29.79,29.49,5,1,14,0.09
2014-1-22,29,24,18,19,9,-2,74,54,27,30.04,29.77,8,3,12,0.01
2014-1-23,35,25,15,12,8,0,77,49,28,30.40,30.03,8,2,13,0.00
2014-1-24,26,17,9,-1,-5,-8,54,38,22,30.57,30.19,8,2,12,0.00
2014-1-25,38,28,16,15,4,-4,51,36,25,30.18,29.60,10,3,19,0.00
2014-1-26,53,37,20,27,17,11,79,47,22,29.91,29.75,7,1,11,0.00
2014-1-27,61,47,31,35,28,6,64,49,35,30.02,29.70,9,2,17,0.00
2014-1-28,30,22,18,14,5,-7,82,54,25,30.29,30.03,7,1,14,0.00
2014-1-29,26,19,12,12,4,-6,78,55,27,30.32,30.13,6,1,11,0.06
2014-1-30,35,20,5,10,4,0,81,54,25,30.38,30.17,5,0,8,0.00
2014-1-31,54,33,17,20,14,9,72,49,21,30.18,30.06,5,0,8,0.02
2014-2-1,60,43,24,34,22,18,80,49,20,30.20,30.00,5,0,7,0.00
2014-2-2,67,51,41,47,41,34,88,70,43,30.03,29.92,6,1,11,0.00
2014-2-3,60,50,39,58,46,34,93,87,81,30.19,29.76,11,1,13,0.22
2014-2-4,40,38,35,37,33,30,93,84,76,30.34,30.04,11,1,11,0.22
2014-2-5,52,43,38,45,37,26,94,82,54,30.04,29.72,10,2,16,0.05
2014-2-6,42,36,30,26,21,19,65,54,42,30.26,30.03,6,1,12,0.00
2014-2-7,48,38,28,27,25,22,83,61,41,30.28,30.18,7,1,9,0.00
2014-2-8,50,40,33,30,27,24,79,61,44,30.22,30.05,4,0,8,0.00
2014-2-9,55,43,30,38,33,26,85,67,50,30.12,29.89,7,1,11,0.00
2014-2-10,40,36,33,32,29,25,88,78,58,30.18,29.95,2,0,10,0.05
2014-2-11,36,31,26,30,20,15,86,63,51,30.34,30.17,6,1,11,0.00
2014-2-12,26,23,21,19,15,11,88,71,54,30.38,29.80,7,2,14,0.00
2014-2-13,38,32,23,34,29,20,93,86,63,29.80,29.42,10,2,16,0.31
2014-2-14,56,42,32,31,25,21,69,53,27,29.72,29.61,7,2,13,0.34
2014-2-15,43,37,30,36,24,13,92,61,36,30.00,29.49,14,3,29,0.15
2014-2-16,50,38,30,27,21,14,72,52,34,30.09,29.94,10,1,12,0.00
2014-2-17,44,36,29,27,22,19,76,58,41,30.31,30.10,6,1,12,0.00
2014-2-18,61,46,31,30,25,19,83,48,20,30.15,29.99,10,1,14,0.00
2014-2-19,71,56,43,57,46,30,95,72,42,30.00,29.81,10,1,14,0.20
2014-2-20,73,58,46,56,45,36,85,64,48,30.09,29.85,6,1,11,0.00
2014-2-21,65,58,38,60,46,24,91,69,33,29.95,29.70,13,1,20,0.47
2014-2-22,65,48,36,36,26,17,81,48,16,30.12,29.96,6,0,8,0.00
2014-2-23,69,52,36,39,32,26,79,50,23,30.02,29.78,7,1,13,0.00
2014-2-24,58,48,35,40,25,15,80,44,21,30.06,29.79,11,2,18,0.00
2014-2-25,53,40,29,22,18,12,70,44,22,30.05,29.88,4,0,8,0.00
2014-2-26,49,39,28,21,18,12,51,43,29,29.90,29.70,8,1,13,0.00
2014-2-27,53,37,22,16,9,-1,72,37,13,29.93,29.70,10,2,17,0.00
2014-2-28,43,34,26,16,11,6,50,39,27,30.25,29.94,7,1,14,0.00
2014-3-1,53,38,27,29,20,11,75,49,31,30.31,30.15,4,0,7,0.00
2014-3-2,71,53,34,45,37,28,86,59,33,30.17,29.79,10,1,17,0.00
2014-3-3,58,38,21,45,32,14,89,79,61,30.23,29.71,10,2,21,0.34
2014-3-4,34,25,15,16,11,5,76,56,37,30.33,30.17,9,1,14,0.09
2014-3-5,48,36,27,25,18,12,66,49,33,30.24,30.06,4,0,10,0.02
2014-3-6,40,34,29,28,20,13,88,59,41,30.34,30.08,13,2,19,0.17
2014-3-7,38,33,30,35,30,27,91,89,86,30.07,29.88,5,0,11,1.21
2014-3-8,65,46,30,43,35,28,91,71,37,30.01,29.86,7,1,12,0.91
2014-3-9,66,52,39,40,36,31,83,58,29,30.01,29.90,6,1,13,0.00
2014-3-10,72,53,34,35,31,25,84,48,21,29.94,29.72,10,1,16,0.00
2014-3-11,78,62,44,39,34,29,66,39,17,29.72,29.57,8,1,11,0.00
2014-3-12,67,56,40,58,46,22,89,68,49,29.61,29.11,13,3,29,0.24
2014-3-13,45,38,31,22,10,4,55,33,20,30.16,29.62,13,4,25,0.00
2014-3-14,61,44,25,24,17,11,68,37,17,30.25,29.96,10,1,14,0.00
2014-3-15,71,56,40,35,30,24,63,40,21,29.97,29.87,12,2,17,0.00
2014-3-16,53,45,36,41,35,27,91,70,37,29.96,29.76,5,0,13,0.64
2014-3-17,35,31,29,32,28,26,89,87,84,29.96,29.78,6,0,11,0.02
2014-3-18,39,33,29,36,30,25,91,89,86,30.13,29.93,7,0,11,0.13
2014-3-19,49,41,35,44,38,32,93,89,82,30.13,29.89,0,0,1,0.24
2014-3-20,65,52,41,44,31,18,93,52,17,29.99,29.86,10,1,17,0.00
2014-3-21,69,51,32,31,27,22,78,43,20,30.08,29.95,7,1,11,0.00
2014-3-22,74,59,46,40,35,30,64,44,25,29.96,29.84,10,1,14,0.00
2014-3-23,53,46,37,41,36,26,89,70,44,30.11,29.86,5,0,12,0.18
2014-3-24,50,40,28,26,17,10,64,41,20,30.23,30.00,6,1,11,0.00
2014-3-25,40,37,33,36,30,21,87,76,54,29.99,29.73,7,1,16,0.16
2014-3-26,46,36,28,21,13,9,63,41,23,30.27,29.94,10,3,18,0.00
2014-3-27,58,42,24,37,20,12,78,45,20,30.39,30.17,6,1,13,0.00
2014-3-28,65,55,46,55,48,37,92,79,64,30.17,30.02,8,1,14,0.07
2014-3-29,65,59,51,62,57,42,95,91,73,30.02,29.48,9,1,19,0.19
2014-3-30,55,46,39,41,30,26,77,54,33,29.92,29.57,18,6,24,0.02
2014-3-31,72,54,34,33,25,18,75,38,14,30.04,29.91,6,1,12,0.00
2014-4-1,80,61,41,37,33,29,68,39,17,30.06,29.89,8,1,13,0.00
2014-4-2,86,70,52,41,38,35,57,34,16,29.99,29.89,6,1,12,0.00
2014-4-3,78,64,52,54,46,37,74,52,33,30.03,29.80,3,1,12,0.01
2014-4-4,78,66,53,57,50,43,74,58,40,29.82,29.62,13,2,18,0.00
2014-4-5,69,61,51,44,34,28,63,38,22,30.01,29.72,10,2,13,0.00
2014-4-6,60,52,44,38,31,26,61,44,32,30.14,30.00,8,2,17,0.00
2014-4-7,60,50,43,58,47,39,93,89,59,30.00,29.56,7,1,13,1.45
2014-4-8,68,60,52,59,46,36,93,63,36,29.63,29.48,7,2,16,0.03
2014-4-9,66,58,46,40,36,29,71,46,27,30.06,29.63,11,2,20,0.00
2014-4-10,73,57,39,38,36,33,83,49,24,30.20,30.05,5,1,12,0.00
2014-4-11,78,64,49,46,40,36,66,44,24,30.11,29.96,12,2,18,0.00
2014-4-12,81,67,52,52,48,45,80,53,32,30.13,30.02,7,1,12,0.00
2014-4-13,80,69,56,57,53,49,80,57,38,30.11,29.96,6,1,11,0.00
2014-4-14,76,68,61,62,56,50,88,68,50,29.96,29.69,8,1,16,0.00
2014-4-15,68,57,36,64,52,23,93,84,59,29.99,29.51,16,2,19,1.48
2014-4-16,53,42,31,29,24,20,71,49,28,30.39,30.00,8,1,16,0.00
2014-4-17,61,47,31,35,28,24,83,53,25,30.50,30.35,5,1,12,0.00
2014-4-18,58,49,40,46,39,35,86,69,49,30.38,30.14,3,0,10,0.06
2014-4-19,59,52,46,48,44,41,91,76,52,30.17,30.08,8,1,16,0.38
2014-4-20,68,58,49,43,36,30,71,46,25,30.22,30.12,12,2,19,0.00
2014-4-21,74,58,41,39,32,25,75,43,17,30.12,29.82,4,0,10,0.00
2014-4-22,80,66,54,57,49,38,84,56,34,29.82,29.60,11,1,14,0.00
2014-4-23,72,63,51,55,33,24,84,36,17,29.93,29.62,8,2,16,0.00
2014-4-24,73,58,40,42,36,30,78,46,25,30.07,29.89,3,0,7,0.00
2014-4-25,78,62,50,68,54,41,90,75,53,29.89,29.58,10,1,18,0.02
2014-4-26,80,66,49,50,44,39,77,48,24,29.93,29.79,6,1,10,0.01
2014-4-27,85,71,52,53,47,42,76,46,22,29.92,29.81,2,0,7,0.00
2014-4-28,67,61,54,56,51,48,85,71,56,29.92,29.82,6,1,11,0.00
2014-4-29,58,54,51,54,52,49,94,91,85,29.97,29.84,7,1,11,0.03
2014-4-30,80,66,55,72,61,53,95,83,66,29.95,29.77,3,0,10,0.30
2014-5-1,80,70,58,62,53,42,84,58,32,29.80,29.67,6,1,12,0.00
2014-5-2,72,60,50,47,42,38,81,54,33,29.88,29.75,5,0,7,0.00
2014-5-3,77,65,51,49,43,38,86,49,26,29.84,29.75,7,0,20,0.00
2014-5-4,86,71,50,50,45,41,78,42,23,29.92,29.73,8,1,14,0.00
2014-5-5,76,66,58,57,52,47,71,60,46,29.92,29.73,4,0,11,0.00
2014-5-6,87,68,52,60,53,48,89,62,28,29.90,29.78,3,0,8,0.00
2014-5-7,78,68,60,64,60,57,90,77,58,30.06,29.90,5,0,7,0.00
2014-5-8,90,75,60,60,55,45,94,56,22,30.09,29.98,6,0,10,0.00
2014-5-9,89,73,61,66,60,54,91,67,35,30.06,29.93,4,0,11,0.08
2014-5-10,84,69,62,67,62,58,93,81,51,30.02,29.90,5,0,11,0.18
2014-5-11,84,72,59,64,58,54,94,67,37,30.07,29.95,2,0,8,0.00
2014-5-12,91,76,59,65,60,55,90,62,37,30.10,30.01,1,0,7,0.00
2014-5-13,91,78,65,69,64,62,90,64,39,30.05,29.97,4,0,7,0.00
2014-5-14,87,77,67,69,63,58,87,64,42,30.06,29.94,6,0,11,0.00
2014-5-15,71,68,60,68,65,58,94,89,75,29.97,29.74,3,0,12,2.01
2014-5-16,73,62,53,58,48,39,93,63,36,30.00,29.78,6,0,10,0.00
2014-5-17,70,60,46,49,41,37,76,52,33,30.10,30.00,5,0,11,0.00
2014-5-18,69,59,52,47,44,40,81,57,39,30.17,30.09,2,0,8,0.00
2014-5-19,73,61,47,51,47,44,93,63,37,30.24,30.14,3,0,6,0.00
2014-5-20,80,67,52,58,53,46,78,63,41,30.20,29.99,4,0,10,0.00
2014-5-21,87,76,64,63,60,57,85,61,38,30.00,29.85,3,0,10,0.00
2014-5-22,88,78,69,63,60,57,75,57,35,29.88,29.76,5,0,12,0.00
2014-5-23,84,75,65,65,56,46,87,55,34,29.95,29.83,3,0,11,0.00
2014-5-24,80,69,56,53,48,42,75,49,27,30.05,29.94,7,0,11,0.00
2014-5-25,80,70,56,59,55,50,84,62,42,30.11,30.03,2,0,6,0.00
2014-5-26,87,76,62,66,61,56,89,64,42,30.11,29.96,2,0,11,0.00
2014-5-27,89,76,67,69,65,63,89,72,45,30.00,29.88,3,0,6,0.00
2014-5-28,90,79,67,70,64,60,89,63,38,29.93,29.84,5,0,6,0.00
2014-5-29,81,74,66,67,64,63,90,74,60,30.01,29.89,5,1,8,0.00
2014-5-30,80,72,67,68,66,63,94,82,62,30.05,29.95,4,1,11,0.17
2014-5-31,81,72,64,66,60,53,93,69,42,30.12,30.03,6,0,11,0.12
2014-6-1,79,68,59,56,54,50,82,61,39,30.25,30.13,3,0,8,0.00
2014-6-2,82,73,54,59,54,49,88,55,40,30.20,30.02,1,0,6,0.00
2014-6-3,87,74,58,67,61,54,87,66,40,30.03,29.85,6,0,8,0.02
2014-6-4,91,80,67,68,64,61,83,62,40,29.85,29.65,2,0,8,0.00
2014-6-5,89,80,70,70,65,58,76,61,46,29.78,29.61,7,0,11,0.00
2014-6-6,84,73,64,65,59,53,76,62,39,29.88,29.76,3,0,7,0.00
2014-6-7,85,74,62,66,61,59,92,67,42,29.95,29.86,4,0,7,0.00
2014-6-8,85,72,65,70,65,60,92,80,51,29.89,29.79,1,0,7,0.25
2014-6-9,86,74,68,70,67,65,93,79,52,29.85,29.76,3,0,14,0.35
2014-6-10,93,80,67,72,68,64,94,71,41,29.86,29.79,6,0,11,0.20
2014-6-11,91,77,67,69,66,63,93,72,41,29.87,29.72,3,0,11,0.55
2014-6-12,85,76,68,71,67,64,94,76,51,29.85,29.71,3,0,4,0.03
2014-6-13,89,77,66,69,66,64,93,72,46,29.80,29.70,2,0,7,0.00
2014-6-14,87,76,64,67,59,52,79,58,32,29.99,29.80,4,0,8,0.00
2014-6-15,88,74,59,66,61,54,89,68,43,30.12,29.99,5,0,7,0.00
2014-6-16,93,81,69,72,68,63,91,68,44,30.10,29.99,2,0,7,0.00
2014-6-17,94,83,71,71,69,66,86,64,43,30.07,29.96,1,0,5,0.00
2014-6-18,96,84,70,71,67,61,86,60,32,30.02,29.93,6,0,10,0.00
2014-6-19,92,81,72,70,67,63,81,65,46,30.00,29.90,1,0,8,0.00
2014-6-20,92,80,70,72,68,66,87,69,45,29.95,29.83,3,0,7,0.00
2014-6-21,89,80,70,71,68,65,92,68,44,29.84,29.70,6,0,10,0.00
2014-6-22,84,76,70,69,67,65,90,74,54,29.90,29.74,4,1,10,0.00
2014-6-23,83,76,68,67,65,63,88,70,52,30.03,29.90,3,0,8,0.00
2014-6-24,87,77,69,71,68,64,87,73,53,30.05,29.91,3,0,12,0.01
2014-6-25,92,80,72,72,70,68,88,72,46,29.91,29.79,2,0,8,0.00
2014-6-26,92,82,72,69,65,61,83,59,36,29.91,29.81,3,0,8,0.00
2014-6-27,86,76,72,72,68,65,86,75,61,30.03,29.89,3,0,7,0.00
2014-6-28,86,76,71,69,67,64,89,74,49,30.14,30.03,6,1,10,0.00
2014-6-29,85,75,66,64,58,51,77,56,36,30.15,30.02,5,0,7,0.00
2014-6-30,90,77,64,71,65,59,85,68,46,30.03,29.86,3,0,9,0.00
2014-7-1,94,82,71,73,70,68,90,68,46,29.89,29.78,2,0,7,0.00
2014-7-2,96,86,74,74,71,65,90,65,43,29.85,29.80,2,0,7,0.00
2014-7-3,93,79,73,76,70,64,87,75,47,29.92,29.77,3,0,11,0.16
2014-7-4,86,77,70,63,56,49,71,50,28,30.10,29.84,6,1,10,0.00
2014-7-5,84,75,64,55,51,48,67,44,29,30.21,30.09,5,1,11,0.00
2014-7-6,89,76,62,64,58,52,83,57,31,30.10,29.93,2,0,6,0.00
2014-7-7,93,81,66,68,64,58,90,60,31,29.96,29.82,3,0,9,0.00
2014-7-8,96,82,71,70,65,58,91,60,29,29.92,29.77,6,0,11,0.10
2014-7-9,91,77,71,71,69,65,93,78,44,29.93,29.83,1,0,10,0.71
2014-7-10,85,75,70,72,69,67,94,82,55,30.03,29.90,3,0,10,0.01
2014-7-11,87,76,69,70,67,64,93,75,46,30.12,30.01,2,0,6,0.00
2014-7-12,91,80,67,71,66,61,93,66,38,30.13,30.02,2,0,6,0.00
2014-7-13,94,81,70,72,67,64,88,64,40,30.05,29.90,5,0,8,0.00
2014-7-14,97,84,74,73,68,63,85,61,34,29.90,29.75,3,0,7,0.00
2014-7-15,94,78,69,72,69,67,93,76,42,29.77,29.66,7,0,8,1.89
2014-7-16,86,74,66,68,61,55,94,68,35,29.87,29.71,5,0,10,0.00
2014-7-17,83,72,59,60,56,52,78,58,40,30.02,29.87,4,0,8,0.00
2014-7-18,84,74,63,66,61,57,85,67,44,30.11,30.02,1,0,6,0.00
2014-7-19,80,72,66,65,62,58,90,74,50,30.10,30.01,1,0,6,0.12
2014-7-20,77,71,65,70,66,62,93,86,76,30.06,29.96,0,0,3,0.07
2014-7-21,78,74,69,72,70,66,93,87,74,30.07,29.97,1,0,6,0.00
2014-7-22,86,76,69,73,69,67,93,81,57,30.09,29.99,0,0,0,0.00
2014-7-23,92,81,70,74,70,68,94,72,47,30.00,29.81,0,0,0,0.00
2014-7-24,90,78,68,73,69,65,92,77,49,29.89,29.72,2,0,18,0.51
2014-7-25,82,74,67,69,67,65,93,79,58,29.99,29.89,2,0,7,0.01
2014-7-26,90,79,70,74,69,64,93,73,45,29.94,29.83,3,0,7,0.00
2014-7-27,89,80,73,75,70,65,90,72,50,29.86,29.66,5,0,13,0.10
2014-7-28,87,78,67,68,61,54,86,58,35,29.81,29.66,4,0,18,0.03
2014-7-29,81,71,60,61,57,55,85,63,41,29.92,29.79,2,0,7,0.00
2014-7-30,81,71,62,65,61,57,87,70,52,30.00,29.92,4,0,6,0.00
2014-7-31,80,72,64,68,65,61,93,79,60,30.07,29.98,0,0,0,0.25
2014-8-1,70,67,64,67,65,62,93,93,90,30.07,30.00,5,0,8,0.90
2014-8-2,72,67,63,66,64,62,94,89,82,30.06,29.99,2,0,7,0.01
2014-8-3,84,73,66,69,66,63,94,79,51,30.04,29.94,2,0,6,0.00
2014-8-4,84,75,66,69,66,63,94,75,52,30.02,29.94,1,0,7,0.00
2014-8-5,86,76,66,69,66,62,94,73,48,29.99,29.89,3,0,6,0.00
2014-8-6,90,80,68,68,65,59,87,63,37,29.91,29.83,0,0,0,0.00
2014-8-7,86,76,68,68,65,62,91,70,47,29.95,29.84,1,0,11,0.00
2014-8-8,75,72,67,69,67,65,93,86,74,30.05,29.94,0,0,0,0.04
2014-8-9,71,68,66,69,65,63,93,91,89,30.03,29.95,3,0,8,0.33
2014-8-10,74,69,66,71,67,64,94,93,88,30.04,29.97,0,0,7,0.14
2014-8-11,79,73,70,72,70,68,94,90,75,29.99,29.87,1,0,6,0.55
2014-8-12,87,77,70,75,72,68,95,85,66,29.86,29.68,1,0,10,0.01
2014-8-13,80,73,66,67,63,57,93,72,48,29.85,29.73,2,0,8,0.00
2014-8-14,70,68,68,61,60,60,77,75,72,29.91,29.89,0,0,0,0.00
2014-8-15,85,75,62,66,63,59,90,68,43,29.96,29.86,0,0,3,0.00
2014-8-16,88,77,66,67,63,58,86,65,39,29.95,29.87,2,0,8,0.00
2014-8-17,88,78,69,70,66,63,89,70,45,29.93,29.85,1,0,5,0.00
2014-8-18,86,76,71,74,70,68,91,83,64,29.85,29.69,1,0,7,0.05
2014-8-19,86,79,69,72,70,66,93,75,54,29.80,29.69,0,0,6,0.00
2014-8-20,90,82,72,75,71,63,95,71,53,29.93,29.78,0,0,0,0.00
2014-8-21,90,81,70,71,68,65,93,67,45,30.00,29.89,0,0,7,0.00
2014-8-22,92,82,70,77,70,68,93,69,50,29.94,29.84,0,0,8,0.00
2014-8-23,86,79,73,75,71,68,88,76,63,29.90,29.81,3,0,11,0.05
2014-8-24,78,74,69,69,64,60,87,74,59,30.04,29.88,8,1,12,0.00
2014-8-25,80,70,60,61,59,56,93,68,44,30.06,30.00,8,1,12,0.00
2014-8-26,81,72,64,64,60,57,85,68,44,30.08,29.99,4,0,10,0.00
2014-8-27,85,74,60,64,60,54,92,64,34,30.02,29.89,3,0,8,0.00
2014-8-28,91,79,68,70,66,62,84,67,45,29.92,29.85,5,0,5,0.00
2014-8-29,82,76,71,70,68,63,87,77,63,30.07,29.92,3,0,9,0.00
2014-8-30,92,81,73,74,70,65,94,72,42,30.12,29.99,0,0,5,0.00
2014-8-31,92,80,72,74,71,69,96,75,51,30.09,29.93,0,0,6,0.00
2014-9-1,94,83,72,74,67,62,90,64,38,30.02,29.91,3,0,11,0.00
2014-9-2,95,86,72,83,70,64,89,61,36,30.01,29.82,1,0,6,0.00
2014-9-3,90,80,72,72,69,66,94,70,47,30.03,29.86,4,0,12,0.70
2014-9-4,86,76,72,75,71,68,94,85,65,30.12,30.00,2,0,6,0.02
2014-9-5,90,76,69,74,70,67,94,85,54,30.12,29.99,2,0,7,0.15
2014-9-6,72,70,70,70,69,68,95,95,94,30.00,29.86,0,0,0,0.00
2014-9-7,70,70,70,69,69,69,95,95,95,30.05,29.91,0,0,0,0.00
2014-9-8,70,19,0,69,19,0,95,26,95,30.08,30.00,0,0,0,0.00
2014-9-9,76,48,0,68,44,0,90,55,73,30.09,29.98,2,0,7,0.00
2014-9-10,79,73,68,69,66,65,90,80,68,30.08,29.94,2,0,2,0.00
2014-9-11,78,78,78,68,68,68,70,70,70,29.98,29.88,0,0,0,0.00
2014-9-12,78,78,78,68,68,68,70,70,70,30.04,29.93,0,0,0,0.00
2014-9-13,78,78,78,68,68,68,70,70,70,30.14,29.99,0,0,0,0.00
2014-9-14,78,78,78,68,68,68,70,70,70,30.22,30.12,0,0,0,0.00
2014-9-15,78,76,68,68,66,62,89,73,67,30.17,30.02,1,0,3,0.00
2014-9-16,82,73,68,69,65,61,91,78,52,30.01,29.85,5,0,11,0.25
2014-9-17,76,68,62,66,62,60,95,83,62,29.95,29.83,7,0,8,0.00
2014-9-18,78,69,62,65,62,60,95,80,59,29.96,29.85,2,0,4,0.00
2014-9-19,76,68,64,63,62,59,91,79,57,30.16,29.96,6,0,10,0.02
2014-9-20,79,69,58,61,59,55,95,74,45,30.16,29.94,7,0,8,0.00
2014-9-21,84,72,59,68,61,57,92,72,47,29.94,29.70,8,0,12,0.02
2014-9-22,73,67,56,66,54,50,89,63,45,30.09,29.78,7,0,8,0.00
2014-9-23,62,58,55,51,48,45,85,71,62,30.28,30.08,12,1,12,0.00
2014-9-24,61,58,55,59,54,48,93,84,74,30.29,30.17,8,1,11,0.06
2014-9-25,65,63,61,62,61,59,95,92,89,30.19,30.11,7,1,8,0.07
2014-9-26,65,65,65,62,62,62,89,89,89,30.17,30.11,1,1,1,0.00
2014-9-27,65,65,65,62,62,62,89,89,89,30.18,30.10,1,1,1,0.00
2014-9-28,65,65,65,62,62,62,89,89,89,30.14,30.01,1,1,1,0.00
2014-9-29,68,66,65,64,62,62,93,89,83,30.01,29.88,1,0,2,0.09
2014-9-30,78,67,61,64,61,57,95,83,52,29.88,29.75,5,0,6,0.00
2014-10-1,74,67,60,65,62,53,95,84,67,29.96,29.84,5,0,6,0.00
2014-10-2,81,69,60,66,63,58,95,81,49,30.04,29.93,3,0,4,0.00
2014-10-3,81,70,62,72,64,60,95,84,52,29.97,29.65,10,0,11,0.04
2014-10-4,71,62,50,68,46,30,93,59,30,29.84,29.62,12,1,13,0.00
2014-10-5,64,54,48,40,35,32,71,50,32,29.96,29.79,5,0,8,0.00
2014-10-6,74,60,46,50,44,37,81,59,39,30.01,29.87,8,0,10,0.00
2014-10-7,76,64,54,68,53,48,89,69,51,30.05,29.90,5,0,10,0.00
2014-10-8,82,72,66,62,56,45,74,59,40,29.97,29.84,8,0,10,0.00
2014-10-9,80,71,63,55,51,47,75,50,32,30.10,29.95,4,0,6,0.00
2014-10-10,83,70,60,67,61,53,94,74,46,30.02,29.85,6,0,13,0.20
2014-10-11,81,70,59,69,64,54,95,84,59,30.03,29.84,7,0,9,0.03
2014-10-12,59,57,55,58,55,52,95,92,83,30.17,30.02,8,0,9,0.07
2014-10-13,73,64,59,68,62,57,95,93,83,30.19,30.06,3,0,3,0.11
2014-10-14,81,74,69,71,69,66,95,84,66,30.06,29.75,11,1,13,0.00
2014-10-15,73,65,56,68,58,44,95,81,54,29.80,29.69,11,0,11,1.13
2014-10-16,68,61,55,57,51,45,82,72,53,29.80,29.68,3,0,6,0.00
2014-10-17,73,61,50,53,50,45,88,69,43,29.85,29.70,5,0,7,0.00
2014-10-18,70,62,54,54,49,44,92,67,41,29.86,29.68,12,0,12,0.00
2014-10-19,65,54,44,46,42,36,89,66,36,30.07,29.86,7,0,10,0.00
2014-10-20,70,55,42,50,45,40,92,73,43,30.09,29.90,7,0,10,0.00
2014-10-21,71,60,48,53,46,35,93,64,40,29.90,29.76,8,0,12,0.00
2014-10-22,63,53,43,43,40,38,84,63,47,30.00,29.88,11,1,14,0.00
2014-10-23,67,54,41,44,41,37,89,63,40,29.99,29.89,10,0,14,0.00
2014-10-24,67,55,42,52,42,38,90,64,37,30.00,29.88,5,0,6,0.00
2014-10-25,71,55,40,44,40,26,91,60,29,29.99,29.80,5,0,6,0.00
2014-10-26,76,64,49,57,44,27,73,51,21,29.93,29.75,9,0,13,0.00
2014-10-27,78,58,42,48,40,34,83,56,26,30.07,29.91,5,0,6,0.00
2014-10-28,82,65,51,60,53,46,93,68,37,30.07,29.93,6,0,12,0.00
2014-10-29,75,63,54,57,54,48,91,74,51,29.95,29.84,6,0,7,0.19
2014-10-30,64,53,44,51,42,36,93,71,37,30.01,29.90,7,0,8,0.00
2014-10-31,58,49,41,46,40,35,88,73,57,29.93,29.72,8,0,8,0.09
2014-11-1,51,46,42,44,39,32,93,79,57,29.94,29.65,19,1,19,0.84
2014-11-2,51,42,33,32,24,18,75,50,27,30.28,29.94,11,1,16,0.00
2014-11-3,64,46,30,32,26,18,82,50,17,30.38,30.26,6,0,7,0.00
2014-11-4,67,54,44,38,33,26,61,46,23,30.28,30.15,6,0,6,0.00
2014-11-5,68,57,48,50,42,36,86,61,34,30.22,30.04,3,0,3,0.00
2014-11-6,64,58,50,59,52,33,92,79,48,30.07,29.65,12,0,16,0.59
2014-11-7,57,48,37,36,34,30,81,59,41,30.01,29.80,16,1,20,0.00
2014-11-8,57,44,32,39,33,28,90,69,43,30.04,29.89,6,0,8,0.00
2014-11-9,61,48,40,41,38,37,90,72,43,29.98,29.86,5,0,6,0.00
2014-11-10,66,49,36,47,39,34,95,74,38,30.07,29.97,6,0,8,0.00
2014-11-11,72,55,42,54,47,39,91,77,51,30.01,29.83,6,0,6,0.00
2014-11-12,73,59,47,51,45,37,93,63,39,29.96,29.83,10,0,10,0.00
2014-11-13,54,49,41,38,35,28,67,58,50,30.01,29.89,6,1,12,0.00
2014-11-14,41,35,26,31,18,12,83,52,32,30.30,30.01,10,1,13,0.00
2014-11-15,43,31,24,20,15,11,70,52,28,30.42,30.29,6,0,7,0.00
2014-11-16,52,42,28,37,25,18,73,51,30,30.33,29.97,4,0,6,0.00
2014-11-17,52,45,37,50,42,28,95,87,67,30.00,29.53,11,1,12,0.44
2014-11-18,38,30,22,28,12,5,73,48,29,30.27,29.80,14,2,17,0.00
2014-11-19,41,29,16,18,12,6,78,51,27,30.35,30.15,7,0,7,0.00
2014-11-20,56,42,30,29,22,14,65,46,30,30.15,29.95,16,1,16,0.00
2014-11-21,47,36,26,25,16,7,71,47,20,30.49,30.07,11,1,11,0.00
2014-11-22,53,36,23,24,17,10,75,51,23,30.54,30.26,7,0,7,0.00
2014-11-23,62,49,35,61,42,23,95,76,49,30.28,29.62,10,0,12,0.70
2014-11-24,73,64,58,61,57,53,95,78,51,29.80,29.60,10,1,13,0.01
2014-11-25,65,57,47,61,46,38,90,67,48,30.01,29.78,10,0,10,0.04
2014-11-26,48,43,37,44,40,35,94,90,81,30.00,29.86,12,1,13,0.93
2014-11-27,47,41,33,41,34,21,95,78,52,30.23,29.91,14,2,22,0.23
2014-11-28,43,33,25,24,20,16,82,60,35,30.33,30.21,8,1,11,0.00
2014-11-29,54,39,28,30,26,22,80,62,35,30.26,30.14,10,0,10,0.00
2014-11-30,66,48,31,47,38,27,89,71,48,30.23,30.12,7,0,10,0.00
2014-12-1,74,56,43,50,45,39,91,70,39,30.28,30.16,7,0,8,0.00
2014-12-2,53,44,40,49,40,37,94,88,76,30.39,30.20,12,1,14,0.00
2014-12-3,56,48,40,52,46,39,95,93,87,30.29,30.09,7,0,8,0.00
2014-12-4,55,47,39,45,38,32,94,73,55,30.35,30.19,10,1,14,0.00
2014-12-5,47,44,41,41,37,32,90,76,64,30.43,30.29,4,0,5,0.02
2014-12-6,51,47,40,49,45,38,94,91,81,30.30,29.98,7,0,17,0.06
2014-12-7,52,46,36,45,29,16,82,54,27,30.39,30.06,13,2,17,0.00
2014-12-8,41,37,35,34,26,17,91,67,48,30.39,30.11,10,1,14,0.11
2014-12-9,53,44,36,40,36,32,93,75,56,30.13,29.83,12,1,14,0.10
2014-12-10,49,40,35,32,27,22,77,59,42,29.95,29.89,19,3,21,0.00
2014-12-11,48,37,28,22,18,12,70,47,25,30.08,29.92,12,2,13,0.00
2014-12-12,56,43,31,19,16,13,52,34,20,30.16,30.04,7,2,13,0.00
2014-12-13,61,45,31,26,20,16,65,40,20,30.09,29.96,10,1,12,0.00
2014-12-14,58,43,30,32,27,23,80,55,34,30.02,29.93,8,0,9,0.00
2014-12-15,59,47,36,38,35,32,85,65,43,30.03,29.97,3,0,3,0.00
2014-12-16,52,44,35,47,41,31,92,86,75,30.01,29.81,6,0,6,0.11
2014-12-17,58,47,37,39,34,28,87,64,39,30.04,29.94,11,1,13,0.00
2014-12-18,48,42,34,30,25,19,80,53,32,30.13,30.00,7,0,8,0.00
2014-12-19,52,43,35,30,25,17,71,50,28,30.14,30.03,7,0,8,0.00
2014-12-20,40,37,33,34,30,26,89,76,59,30.24,30.12,5,0,6,0.00
2014-12-21,48,42,38,36,35,32,87,76,62,30.25,30.14,8,0,8,0.00
2014-12-22,42,36,35,35,34,32,94,90,74,30.16,29.98,11,1,11,0.13
2014-12-23,45,41,36,44,39,34,95,94,94,30.03,29.86,8,0,11,0.20
2014-12-24,63,51,44,62,49,43,97,95,86,29.87,29.55,17,0,17,0.91